Year,Month,Day,Hour,Minute,Value (Times are PST for windgust in km/hr)
2021,01,12,00,00,29.00
2021,01,12,00,01,14.50
2021,01,12,00,02,19.30
2021,01,12,00,03,17.70
2021,01,12,00,04,14.50
2021,01,12,00,05,16.10
2021,01,12,00,06,12.90
2021,01,12,00,07,14.50
2021,01,12,00,08,12.90
2021,01,12,00,09,12.90
2021,01,12,00,10,22.50
2021,01,12,00,11,24.20
2021,01,12,00,12,16.10
2021,01,12,00,13,25.70
2021,01,12,00,14,19.30
2021,01,12,00,15,16.10
2021,01,12,00,16,20.90
2021,01,12,00,17,14.50
2021,01,12,00,18,33.80
2021,01,12,00,19,8.10
2021,01,12,00,20,6.40
2021,01,12,00,21,14.50
2021,01,12,00,22,20.90
2021,01,12,00,23,22.50
2021,01,12,00,24,14.50
2021,01,12,00,25,17.70
2021,01,12,00,26,11.30
2021,01,12,00,27,27.40
2021,01,12,00,28,22.50
2021,01,12,00,29,16.10
2021,01,12,00,30,16.10
2021,01,12,00,31,25.70
2021,01,12,00,32,29.00
2021,01,12,00,33,11.30
2021,01,12,00,34,41.80
2021,01,12,00,35,29.00
2021,01,12,00,36,22.50
2021,01,12,00,37,12.90
2021,01,12,00,38,12.90
2021,01,12,00,39,19.30
2021,01,12,00,40,20.90
2021,01,12,00,41,9.60
2021,01,12,00,42,29.00
2021,01,12,00,43,19.30
2021,01,12,00,44,20.90
2021,01,12,00,45,14.50
2021,01,12,00,46,22.50
2021,01,12,00,47,16.10
2021,01,12,00,48,11.30
2021,01,12,00,49,11.30
2021,01,12,00,50,12.90
2021,01,12,00,51,38.60
2021,01,12,00,52,16.10
2021,01,12,00,53,16.10
2021,01,12,00,54,14.50
2021,01,12,00,55,16.10
2021,01,12,00,56,16.10
2021,01,12,00,57,22.50
2021,01,12,00,58,32.20
2021,01,12,00,59,22.50
2021,01,12,01,00,12.90
2021,01,12,01,01,17.70
2021,01,12,01,02,17.70
2021,01,12,01,03,19.30
2021,01,12,01,04,22.50
2021,01,12,01,05,14.50
2021,01,12,01,06,16.10
2021,01,12,01,07,29.00
2021,01,12,01,08,16.10
2021,01,12,01,09,12.90
2021,01,12,01,10,12.90
2021,01,12,01,11,16.10
2021,01,12,01,12,19.30
2021,01,12,01,13,16.10
2021,01,12,01,14,20.90
2021,01,12,01,15,12.90
2021,01,12,01,16,9.60
2021,01,12,01,17,17.70
2021,01,12,01,18,11.30
2021,01,12,01,19,19.30
2021,01,12,01,20,19.30
2021,01,12,01,21,14.50
2021,01,12,01,22,17.70
2021,01,12,01,23,17.70
2021,01,12,01,24,20.90
2021,01,12,01,25,14.50
2021,01,12,01,26,25.70
2021,01,12,01,27,14.50
2021,01,12,01,28,12.90
2021,01,12,01,29,9.60
2021,01,12,01,30,22.50
2021,01,12,01,31,12.90
2021,01,12,01,32,12.90
2021,01,12,01,33,22.50
2021,01,12,01,34,40.20
2021,01,12,01,35,20.90
2021,01,12,01,36,29.00
2021,01,12,01,37,11.30
2021,01,12,01,38,25.70
2021,01,12,01,39,24.20
2021,01,12,01,40,33.80
2021,01,12,01,41,20.90
2021,01,12,01,42,22.50
2021,01,12,01,43,32.20
2021,01,12,01,44,17.70
2021,01,12,01,45,20.90
2021,01,12,01,46,27.40
2021,01,12,01,47,20.90
2021,01,12,01,48,17.70
2021,01,12,01,49,22.50
2021,01,12,01,50,22.50
2021,01,12,01,51,22.50
2021,01,12,01,52,16.10
2021,01,12,01,53,11.30
2021,01,12,01,54,22.50
2021,01,12,01,55,8.10
2021,01,12,01,56,4.80
2021,01,12,01,57,8.10
2021,01,12,01,58,12.90
2021,01,12,01,59,27.40
2021,01,12,02,00,14.50
2021,01,12,02,01,22.50
2021,01,12,02,02,29.00
2021,01,12,02,03,14.50
2021,01,12,02,04,19.30
2021,01,12,02,05,25.70
2021,01,12,02,06,30.60
2021,01,12,02,07,27.40
2021,01,12,02,08,19.30
2021,01,12,02,09,32.20
2021,01,12,02,10,22.50
2021,01,12,02,11,20.90
2021,01,12,02,12,14.50
2021,01,12,02,13,33.80
2021,01,12,02,14,29.00
2021,01,12,02,15,16.10
2021,01,12,02,16,24.20
2021,01,12,02,17,20.90
2021,01,12,02,18,27.40
2021,01,12,02,19,22.50
2021,01,12,02,20,22.50
2021,01,12,02,21,22.50
2021,01,12,02,22,17.70
2021,01,12,02,23,22.50
2021,01,12,02,24,14.50
2021,01,12,02,25,24.20
2021,01,12,02,26,12.90
2021,01,12,02,27,27.40
2021,01,12,02,28,22.50
2021,01,12,02,29,32.20
2021,01,12,02,30,32.20
2021,01,12,02,31,20.90
2021,01,12,02,32,22.50
2021,01,12,02,33,17.70
2021,01,12,02,34,16.10
2021,01,12,02,35,14.50
2021,01,12,02,36,32.20
2021,01,12,02,37,24.20
2021,01,12,02,38,12.90
2021,01,12,02,39,20.90
2021,01,12,02,40,20.90
2021,01,12,02,41,17.70
2021,01,12,02,42,19.30
2021,01,12,02,43,27.40
2021,01,12,02,44,27.40
2021,01,12,02,45,20.90
2021,01,12,02,46,22.50
2021,01,12,02,47,20.90
2021,01,12,02,48,11.30
2021,01,12,02,49,12.90
2021,01,12,02,50,12.90
2021,01,12,02,51,19.30
2021,01,12,02,52,16.10
2021,01,12,02,53,14.50
2021,01,12,02,54,17.70
2021,01,12,02,55,12.90
2021,01,12,02,56,16.10
2021,01,12,02,57,20.90
2021,01,12,02,58,17.70
2021,01,12,02,59,17.70
2021,01,12,03,00,25.70
2021,01,12,03,01,14.50
2021,01,12,03,02,19.30
2021,01,12,03,03,20.90
2021,01,12,03,04,8.10
2021,01,12,03,05,11.30
2021,01,12,03,06,14.50
2021,01,12,03,07,20.90
2021,01,12,03,08,8.10
2021,01,12,03,09,11.30
2021,01,12,03,10,16.10
2021,01,12,03,11,33.80
2021,01,12,03,12,20.90
2021,01,12,03,13,12.90
2021,01,12,03,14,17.70
2021,01,12,03,15,12.90
2021,01,12,03,16,14.50
2021,01,12,03,17,19.30
2021,01,12,03,18,14.50
2021,01,12,03,19,11.30
2021,01,12,03,20,3.20
2021,01,12,03,21,11.30
2021,01,12,03,22,9.60
2021,01,12,03,23,20.90
2021,01,12,03,24,14.50
2021,01,12,03,25,19.30
2021,01,12,03,26,8.10
2021,01,12,03,27,17.70
2021,01,12,03,28,24.20
2021,01,12,03,29,16.10
2021,01,12,03,30,17.70
2021,01,12,03,31,6.40
2021,01,12,03,32,12.90
2021,01,12,03,33,14.50
2021,01,12,03,34,16.10
2021,01,12,03,35,9.60
2021,01,12,03,36,29.00
2021,01,12,03,37,19.30
2021,01,12,03,38,16.10
2021,01,12,03,39,16.10
2021,01,12,03,40,12.90
2021,01,12,03,41,12.90
2021,01,12,03,42,14.50
2021,01,12,03,43,6.40
2021,01,12,03,44,14.50
2021,01,12,03,45,14.50
2021,01,12,03,46,12.90
2021,01,12,03,47,22.50
2021,01,12,03,48,17.70
2021,01,12,03,49,9.60
2021,01,12,03,50,16.10
2021,01,12,03,51,24.20
2021,01,12,03,52,16.10
2021,01,12,03,53,8.10
2021,01,12,03,54,8.10
2021,01,12,03,55,11.30
2021,01,12,03,56,9.60
2021,01,12,03,57,12.90
2021,01,12,03,58,11.30
2021,01,12,03,59,3.20
2021,01,12,04,00,17.70
2021,01,12,04,01,14.50
2021,01,12,04,02,8.10
2021,01,12,04,03,9.60
2021,01,12,04,04,27.40
2021,01,12,04,05,17.70
2021,01,12,04,06,19.30
2021,01,12,04,07,14.50
2021,01,12,04,08,8.10
2021,01,12,04,09,6.40
2021,01,12,04,10,12.90
2021,01,12,04,11,20.90
2021,01,12,04,12,19.30
2021,01,12,04,13,14.50
2021,01,12,04,14,11.30
2021,01,12,04,15,9.60
2021,01,12,04,16,20.90
2021,01,12,04,17,22.50
2021,01,12,04,18,16.10
2021,01,12,04,19,16.10
2021,01,12,04,20,20.90
2021,01,12,04,21,14.50
2021,01,12,04,22,14.50
2021,01,12,04,23,8.10
2021,01,12,04,24,6.40
2021,01,12,04,25,9.60
2021,01,12,04,26,8.10
2021,01,12,04,27,20.90
2021,01,12,04,28,9.60
2021,01,12,04,29,3.20
2021,01,12,04,30,12.90
2021,01,12,04,31,17.70
2021,01,12,04,32,11.30
2021,01,12,04,33,3.20
2021,01,12,04,34,6.40
2021,01,12,04,36,4.80
2021,01,12,04,38,11.30
2021,01,12,04,45,8.10
2021,01,12,04,49,1.60
2021,01,12,04,52,8.10
2021,01,12,04,53,16.10
2021,01,12,04,54,11.30
2021,01,12,04,56,8.10
2021,01,12,04,58,9.60
2021,01,12,04,59,6.40
2021,01,12,05,00,11.30
2021,01,12,05,02,8.10
2021,01,12,05,03,8.10
2021,01,12,05,04,6.40
2021,01,12,05,06,14.50
2021,01,12,05,07,8.10
2021,01,12,05,08,1.60
2021,01,12,05,11,9.60
2021,01,12,05,14,6.40
2021,01,12,05,15,12.90
2021,01,12,05,22,8.10
2021,01,12,05,23,8.10
2021,01,12,05,25,14.50
2021,01,12,05,26,9.60
2021,01,12,05,50,6.40
2021,01,12,06,07,6.40
2021,01,12,06,24,3.20
2021,01,12,06,25,3.20
2021,01,12,06,34,6.40
2021,01,12,06,50,9.60
2021,01,12,06,51,9.60
2021,01,12,06,52,8.10
2021,01,12,06,54,12.90
2021,01,12,06,55,9.60
2021,01,12,07,23,8.10
2021,01,12,07,24,11.30
2021,01,12,07,25,6.40
2021,01,12,07,26,9.60
2021,01,12,08,00,8.10
2021,01,12,08,01,11.30
2021,01,12,08,02,6.40
2021,01,12,08,03,3.20
2021,01,12,08,53,6.40
2021,01,12,08,54,4.80
2021,01,12,09,39,4.80
2021,01,12,09,44,4.80
2021,01,12,09,45,1.60
2021,01,12,09,51,3.20
2021,01,12,09,52,3.20
2021,01,12,09,57,6.40
2021,01,12,09,58,4.80
2021,01,12,10,06,4.80
2021,01,12,10,07,4.80
2021,01,12,10,14,8.10
2021,01,12,10,15,4.80
2021,01,12,10,16,6.40
2021,01,12,10,17,4.80
2021,01,12,10,18,8.10
2021,01,12,10,19,4.80
2021,01,12,10,20,4.80
2021,01,12,10,24,8.10
2021,01,12,10,28,8.10
2021,01,12,10,29,6.40
2021,01,12,10,30,4.80
2021,01,12,10,31,6.40
2021,01,12,10,32,4.80
2021,01,12,10,33,6.40
2021,01,12,10,39,6.40
2021,01,12,10,40,6.40
2021,01,12,10,41,6.40
2021,01,12,10,42,6.40
2021,01,12,10,50,8.10
2021,01,12,10,51,9.60
2021,01,12,10,52,1.60
2021,01,12,10,57,8.10
2021,01,12,10,58,4.80
2021,01,12,11,00,1.60
2021,01,12,11,01,6.40
2021,01,12,11,03,8.10
2021,01,12,11,04,6.40
2021,01,12,11,06,4.80
2021,01,12,11,07,8.10
2021,01,12,11,08,3.20
2021,01,12,11,13,6.40
2021,01,12,11,14,9.60
2021,01,12,11,16,8.10
2021,01,12,11,17,3.20
2021,01,12,11,19,6.40
2021,01,12,11,20,4.80
2021,01,12,11,21,9.60
2021,01,12,11,22,6.40
2021,01,12,11,25,6.40
2021,01,12,11,26,8.10
2021,01,12,11,27,6.40
2021,01,12,11,30,4.80
2021,01,12,12,12,3.20
2021,01,12,12,33,1.60
2021,01,12,12,34,8.10
2021,01,12,12,35,8.10
2021,01,12,12,36,6.40
2021,01,12,12,40,9.60
2021,01,12,12,41,6.40
2021,01,12,12,42,11.30
2021,01,12,12,43,4.80
2021,01,12,12,44,8.10
2021,01,12,16,12,6.40
2021,01,12,16,13,4.80
2021,01,12,16,38,4.80
2021,01,12,16,44,4.80
2021,01,12,16,45,6.40
2021,01,12,16,46,9.60
2021,01,12,16,47,1.60
2021,01,12,16,48,3.20
2021,01,12,16,49,11.30
2021,01,12,16,50,3.20
2021,01,12,16,51,6.40
2021,01,12,16,54,6.40
2021,01,12,16,59,3.20
2021,01,12,17,00,6.40
2021,01,12,17,13,3.20
2021,01,12,17,35,1.60
2021,01,12,17,38,6.40
2021,01,12,17,39,8.10
2021,01,12,17,41,6.40
2021,01,12,17,59,8.10
2021,01,12,18,00,6.40
2021,01,12,18,01,3.20
2021,01,12,18,42,9.60
2021,01,12,18,45,6.40
2021,01,12,18,46,6.40
2021,01,12,18,48,6.40
2021,01,12,20,25,8.10
2021,01,12,20,26,11.30
2021,01,12,20,27,3.20
2021,01,12,20,28,4.80
2021,01,12,20,29,3.20
2021,01,12,20,31,19.30
2021,01,12,20,33,1.60
2021,01,12,20,34,12.90
2021,01,12,20,39,11.30
2021,01,12,20,40,4.80
2021,01,12,20,41,4.80
2021,01,12,20,42,12.90
2021,01,12,20,43,6.40
2021,01,12,20,44,8.10
2021,01,12,20,45,8.10
2021,01,12,20,46,3.20
2021,01,12,20,49,11.30
2021,01,12,20,50,1.60
2021,01,12,20,51,6.40
2021,01,12,20,52,3.20
2021,01,12,20,53,3.20
2021,01,12,20,55,4.80
2021,01,12,20,56,4.80
2021,01,12,20,57,4.80
2021,01,12,20,58,4.80
2021,01,12,20,59,17.70
2021,01,12,21,03,6.40
2021,01,12,21,04,3.20
2021,01,12,21,07,6.40
2021,01,12,21,08,4.80
2021,01,12,21,09,6.40
2021,01,12,21,10,9.60
2021,01,12,21,11,6.40
2021,01,12,21,12,14.50
2021,01,12,21,13,6.40
2021,01,12,21,14,4.80
2021,01,12,21,15,4.80
2021,01,12,21,17,6.40
2021,01,12,21,19,6.40
2021,01,12,21,23,6.40
2021,01,12,21,25,6.40
2021,01,12,21,27,3.20
2021,01,12,21,28,1.60
2021,01,12,21,29,6.40
2021,01,12,21,35,1.60
2021,01,12,21,37,4.80
2021,01,12,21,38,8.10
2021,01,12,21,39,4.80
2021,01,12,21,40,3.20
2021,01,12,21,41,4.80
2021,01,12,21,47,1.60
2021,01,12,21,48,4.80
2021,01,12,21,49,4.80
2021,01,12,21,54,8.10
2021,01,12,22,07,1.60
2021,01,12,22,10,8.10
2021,01,12,22,11,4.80
2021,01,12,22,15,6.40
2021,01,12,22,23,8.10
2021,01,12,22,24,6.40
2021,01,12,22,30,1.60
2021,01,12,22,57,1.60
2021,01,12,23,00,3.20
2021,01,12,23,03,3.20
2021,01,12,23,06,3.20
2021,01,12,23,08,6.40
2021,01,12,23,09,4.80
2021,01,12,23,30,4.80
2021,01,12,23,35,4.80
2021,01,12,23,36,3.20
2021,01,12,23,37,4.80
2021,01,12,23,38,6.40
2021,01,12,23,39,3.20
2021,01,12,23,42,6.40
2021,01,12,23,43,9.60
2021,01,12,23,44,24.20
2021,01,12,23,45,77.30
2021,01,12,23,46,62.70
2021,01,12,23,47,41.80
2021,01,12,23,48,41.80
2021,01,12,23,49,25.70
2021,01,12,23,50,20.90
2021,01,12,23,51,27.40
2021,01,12,23,52,38.60
2021,01,12,23,53,70.80
2021,01,12,23,54,25.70
2021,01,12,23,55,45.10
2021,01,12,23,56,48.30
2021,01,12,23,57,41.80
2021,01,12,23,58,53.10
2021,01,12,23,59,48.30
